Regional Weather Roundup
Issued by NWS

Home | Current Version | Previous Version | Graphics & Text | Print | Product List | Glossary On
Versions: 1 2 3 4 5 6 7 8 9 10 11 12 13 14 15 16 17 18 19 20 21 22 23 24 25 26 27 28 29 30 31 32 33 34 35 36 37 38 39 40 41 42 43 44 45 46 47 48 49 50
987
ASUS44 KLIX 262110
RWRLA
LOUISIANA WEATHER ROUNDUP
NATIONAL WEATHER SERVICE NEW ORLEANS LA
300 PM CST THU FEB 26 2015

NOTE: "FAIR" INDICATES FEW OR NO CLOUDS BELOW 12,000 FEET WITH NO
      SIGNIFICANT WEATHER AND/OR OBSTRUCTIONS TO VISIBILITY.
      SKY/WX - SKY CONDITION AND SIGNIFICANT WEATHER.
      TMP - AIR TEMPERATURE.    DP   - DEWPOINT TEMPERATURE.
      RH  - RELATIVE HUMIDITY.  PRES - PRESSURE.
      HX  - HEAT INDEX.         WCI  - WIND CHILL INDEX.

*  THESE STATIONS ARE NOT NWS OR FAA STATIONS AND ARE NOT UNDER
   NWS QUALITY CONTROL.

LAZ040-048-061>063-065-066-069-262200-
SOUTHEAST LOUISIANA

CITY           SKY/WX    TMP DP  RH WIND       PRES   REMARKS
N.O. AUDUBON     N/A     47  40  74 MISG        N/A
N.O. INTL ARPT PTSUNNY   47  36  65 N14       30.10R
N.O. LAKEFRONT MOSUNNY   49  36  61 N16G22    30.10S
SLIDELL        MOSUNNY   48  35  60 N9        30.08S
BATON ROUGE    SUNNY     50  32  50 NW8       30.11R
BOOTHVILLE     CLOUDY    46  38  73 N9G17     30.07S
BELLE CHASSE   PTSUNNY   47  35  63 N13G21    30.08R
BOGALUSA*        N/A     48  33  56 NE10      30.11S
GALLIANO*      CLOUDY    49  39  67 MISG      30.08R
NEW ROADS*     FAIR      50  34  54 NW12G20   30.12S
GONZALES*      FAIR      49  33  52 N9        30.10S
HAMMOND*       SUNNY     50  32  50 N7        30.11S
HOUMA*         NOT AVBL
PORT FOURCHON* NOT AVBL

$$

LAZ041-044-053-054-262200-
SOUTHWEST LOUISIANA

CITY           SKY/WX    TMP DP  RH WIND       PRES   REMARKS
LAKE CHARLES   MOSUNNY   56  35  45 N14       30.12S
LAFAYETTE      PTSUNNY   49  34  56 N18       30.12S
PATTERSON      PTSUNNY   50  37  62 NE12G20   30.11R
SALT POINT       N/A     50  36  58 N9        30.09R
NEW IBERIA     PTSUNNY   51  36  56 N13       30.12R
CHENAULT AIRPK SUNNY     54  36  50 N14       30.12S

$$

LAZ027-028-262200-
CENTRAL LOUISIANA

CITY           SKY/WX    TMP DP  RH WIND       PRES   REMARKS
FORT POLK      MOSUNNY   53  35  50 N12G18    30.13S
ALEXANDRIA INT PTSUNNY   50  35  56 N13       30.15S
ALEXANDRIA     MOSUNNY   50  34  54 VRB7      30.16R

$$

LAZ001-002-262200-
NORTHWEST LOUISIANA

CITY           SKY/WX    TMP DP  RH WIND       PRES   REMARKS
SHREVEPORT     CLOUDY    38  32  79 N8        30.23R WCI  32
BARKSDALE AFB  NOT AVBL
DTN SHREVEPORT CLOUDY    37  30  75 NW8       30.24R WCI  31

$$

LAZ014-016-262200-
NORTHEAST LOUISIANA

CITY           SKY/WX    TMP DP  RH WIND       PRES   REMARKS
MONROE         CLOUDY    40  34  79 N8        30.23R WCI  34
TALLULAH       CLOUDY    38  31  76 N9        30.21R WCI  31

$$




USA.gov is the U.S. government's official web portal to all federal, state and local government web resources and services.